Location: Buckeye Ditch
(40.9104°N, 122.9517°W)
Time: 18:28:23
(UTC+00:00)

SR - Pass Details

Date: 25 May 2025
Orbit: 570 x 855 km, 66.7° (Epoch: 13 June)

Event Time Altitude Azimuth Distance (km) Brightness Sun altitude
Rises 13:50:04 0° 343° (NNW) 3,324 ? 10.2°
Reaches altitude 10° 13:54:57 10° 21° (NNE) 2,312 ? 11.1°
Maximum altitude 13:56:06 11° 33° (NNE) 2,245 ? 11.3°
Drops below altitude 10° 13:57:15 10° 46° (NE) 2,269 ? 11.5°
Sets 14:01:48 0° 85° (E) 3,096 ? 12.3°
